Location: Consuma
(43.7833°N, 11.5833°E)
Time: 09:25:22
(UTC+00:00)

SKYMED 2 - Pass Details

Date: 17 February 2020
Orbit: 621 x 623 km, 97.9° (Epoch: 03 April)

Event Time Altitude Azimuth Distance (km) Brightness Sun altitude
Rises 04:46:26 0° 179° (S) 2,889 7.0 -15.8°
Reaches altitude 10° 04:48:40 10° 184° (S) 1,988 6.1 -15.4°
Maximum altitude 04:52:52 50° 260° (W) 800 3.7 -14.6°
Drops below altitude 10° 04:57:07 10° 337° (NNW) 2,004 5.9 -13.9°
Sets 04:59:23 0° 342° (NNW) 2,916 6.8 -13.5°
